This is the latest recevied weather packets stored in our database for station/object K4ZZR. If no packets are shown the sender has not sent any weather packets the latest 10 day(s).
| Time | Temp. | Humidity | Pressure | Rain* | Wind** | Luminosity | Snow |
|---|---|---|---|---|---|---|---|
| 1778091244 | 29.44° C | 58% | 1016.7 hPa | 0 mm | - | 711 W/m² | - |
| 1778090941 | 28.89° C | 58% | 1016.9 hPa | 0 mm | - | 878 W/m² | - |
| 1778090637 | 29.44° C | 54% | 1016.8 hPa | 0 mm | - | 968 W/m² | - |
| 1778090334 | 28.89° C | 56% | 1016.9 hPa | 0 mm | - | 887 W/m² | - |
| 1778090031 | 29.44° C | 58% | 1016.7 hPa | 0 mm | - | 972 W/m² | - |
| 1778089728 | 28.89° C | 62% | 1016.9 hPa | 0 mm | - | 937 W/m² | - |
| 1778089425 | 28.89° C | 59% | 1016.9 hPa | 0 mm | - | 900 W/m² | - |
| 1778089123 | 28.33° C | 55% | 1016.8 hPa | 0 mm | - | 942 W/m² | - |
| 1778088819 | 28.89° C | 61% | 1017 hPa | 0 mm | - | 728 W/m² | - |
| 1778088516 | 28.89° C | 54% | 1016.9 hPa | 0 mm | - | 818 W/m² | - |
| 1778088213 | 28.89° C | 57% | 1016.9 hPa | 0 mm | - | 931 W/m² | - |
| 1778087910 | 28.33° C | 65% | 1016.9 hPa | 0 mm | - | 769 W/m² | - |
| 1778087607 | 28.89° C | 65% | 1017.1 hPa | 0 mm | - | 909 W/m² | - |
| 1778087305 | 28.89° C | 61% | 1017 hPa | 0 mm | - | 940 W/m² | - |
| 1778087001 | 28.89° C | 60% | 1016.9 hPa | 0 mm | - | 947 W/m² | - |
| 1778086700 | 28.89° C | 63% | 1017 hPa | 0 mm | - | 728 W/m² | - |
| 1778086397 | 28.89° C | 61% | 1017 hPa | 0 mm | - | 937 W/m² | - |
| 1778086094 | 28.33° C | 65% | 1017 hPa | 0 mm | - | 879 W/m² | - |
| 1778085790 | 28.33° C | 67% | 1017.2 hPa | 0 mm | - | 946 W/m² | - |
| 1778085488 | 28.33° C | 71% | 1017.1 hPa | 0 mm | - | 552 W/m² | - |
| 1778085182 | 28.33° C | 66% | 1017.2 hPa | 0 mm | - | 262 W/m² | - |
| 1778084878 | 28.33° C | 70% | 1017.2 hPa | 0 mm | - | 629 W/m² | - |
| 1778084576 | 28.33° C | 75% | 1017.5 hPa | 0 mm | - | 818 W/m² | - |
| 1778084273 | 27.78° C | 75% | 1017.4 hPa | 0 mm | - | 824 W/m² | - |
| 1778083971 | 27.78° C | 77% | 1017.4 hPa | 0 mm | - | 243 W/m² | - |
* Rain latest hour (hover to see other rain measurements)
** Current wind speed in m/s (hover to see current wind gust speed)